When you browse on this site, cookies collect data to enhance your experience and personalize the content and advertising you see.
Visit our Privacy Policy to learn more. By continuing to use the site, you agree to this use of cookies and data.
  • In Latvia
  • List of Countries
  • For 7 days
  • Water Temperature
  • Satellite Maps
  • Weather Map
  • Weather Widgets
  • user-avatar
    Login

    Hourly Weather Yulara

    Today, 18 November, Sunday

    Time Temperature Precipitation Wind Pressure Humidity
    00:00 +26°C° 0 mm 1 mps 717 mmHg 38%
    01:00 +25°C° 0 mm 1 mps 716 mmHg 40%
    02:00 +23°C° 0 mm 0 mps 716 mmHg 42%
    03:00 +22°C° 0 mm 0 mps 716 mmHg 43%
    04:00 +25°C° 0 mm 1 mps 716 mmHg 41%
    05:00 +25°C° 0 mm 2 mps 716 mmHg 39%
    06:00 +25°C° 0 mm 2 mps 716 mmHg 38%
    07:00 +28°C° 0 mm 3 mps 716 mmHg 32%
    08:00 +30°C° 0 mm 4 mps 717 mmHg 26%
    09:00 +33°C° 0 mm 5 mps 717 mmHg 20%
    10:00 +34°C° 0 mm 4 mps 717 mmHg 19%
    11:00 +35°C° 0 mm 4 mps 717 mmHg 18%
    12:00 +37°C° 0 mm 4 mps 716 mmHg 17%
    13:00 +37°C° 0 mm 4 mps 716 mmHg 16%
    14:00 +38°C° 0 mm 3 mps 715 mmHg 16%
    15:00 +38°C° 0 mm 3 mps 715 mmHg 16%
    16:00 +38°C° 0 mm 3 mps 715 mmHg 16%
    17:00 +38°C° 0 mm 3 mps 715 mmHg 16%
    18:00 +38°C° 0 mm 3 mps 714 mmHg 16%
    19:00 +37°C° 0 mm 3 mps 715 mmHg 18%
    20:00 +36°C° 0 mm 3 mps 715 mmHg 19%
    21:00 +35°C° 0 mm 3 mps 715 mmHg 21%
    22:00 +34°C° 0 mm 3 mps 715 mmHg 22%
    23:00 +34°C° 0 mm 3 mps 714 mmHg 23%

    Tomorrow, 19 November, Monday

    Time Temperature Precipitation Wind Pressure Humidity
    00:00 +33°C° 0 mm 3 mps 714 mmHg 24%
    01:00 +33°C° 0 mm 3 mps 714 mmHg 26%
    02:00 +32°C° 0 mm 4 mps 713 mmHg 28%
    03:00 +32°C° 0 mm 4 mps 713 mmHg 29%
    04:00 +30°C° 0 mm 4 mps 713 mmHg 33%
    05:00 +30°C° 0 mm 4 mps 713 mmHg 37%
    06:00 +29°C° 0 mm 4 mps 713 mmHg 40%
    07:00 +32°C° 0 mm 5 mps 714 mmHg 36%
    08:00 +35°C° 0 mm 7 mps 714 mmHg 31%
    09:00 +38°C° 0 mm 8 mps 714 mmHg 26%
    10:00 +39°C° 0 mm 8 mps 714 mmHg 23%
    11:00 +40°C° 0 mm 7 mps 714 mmHg 21%
    12:00 +41°C° 0 mm 7 mps 714 mmHg 18%
    13:00 +40°C° 0 mm 6 mps 713 mmHg 19%
    14:00 +40°C° 0 mm 6 mps 712 mmHg 19%
    15:00 +40°C° 0 mm 5 mps 712 mmHg 20%
    16:00 +39°C° 0 mm 6 mps 712 mmHg 21%
    17:00 +39°C° 0 mm 6 mps 712 mmHg 23%
    18:00 +38°C° 0 mm 7 mps 712 mmHg 25%
    19:00 +36°C° 0.1 mm 6 mps 712 mmHg 27%
    20:00 +35°C° 0.1 mm 4 mps 712 mmHg 30%
    21:00 +34°C° 0.1 mm 3 mps 713 mmHg 32%
    22:00 +33°C° 0.3 mm 4 mps 713 mmHg 39%
    23:00 +30°C° 0.3 mm 4 mps 713 mmHg 45%

    Day after tomorrow, 20 November, Tuesday

    Time Temperature Precipitation Wind Pressure Humidity
    00:00 +29°C° 0.3 mm 4 mps 713 mmHg 52%
    01:00 +28°C° 0.1 mm 4 mps 712 mmHg 54%
    02:00 +28°C° 0.1 mm 3 mps 712 mmHg 56%
    03:00 +27°C° 0.1 mm 3 mps 712 mmHg 58%
    04:00 +27°C° 0.1 mm 4 mps 712 mmHg 61%
    05:00 +26°C° 0.1 mm 5 mps 712 mmHg 65%
    06:00 +24°C° 0.1 mm 6 mps 712 mmHg 68%
    07:00 +26°C° 1.3 mm 6 mps 713 mmHg 66%
    08:00 +26°C° 1.3 mm 5 mps 713 mmHg 64%
    09:00 +27°C° 1.3 mm 4 mps 713 mmHg 62%
    10:00 +27°C° 0.7 mm 4 mps 713 mmHg 61%
    11:00 +27°C° 0.7 mm 4 mps 713 mmHg 60%
    12:00 +28°C° 0.7 mm 4 mps 713 mmHg 59%
    13:00 +28°C° 1.8 mm 5 mps 712 mmHg 58%
    14:00 +28°C° 1.8 mm 7 mps 711 mmHg 58%
    15:00 +28°C° 1.8 mm 8 mps 711 mmHg 58%
    16:00 +27°C° 7.5 mm 9 mps 711 mmHg 61%
    17:00 +24°C° 7.5 mm 10 mps 711 mmHg 64%
    18:00 +22°C° 7.5 mm 10 mps 711 mmHg 67%
    19:00 +22°C° 0.2 mm 9 mps 712 mmHg 66%
    20:00 +22°C° 0.2 mm 9 mps 713 mmHg 64%
    21:00 +21°C° 0.2 mm 8 mps 713 mmHg 62%
    22:00 +21°C° 0 mm 7 mps 714 mmHg 62%
    23:00 +20°C° 0 mm 7 mps 714 mmHg 61%

    21 November, Wednesday

    Time Temperature Precipitation Wind Pressure Humidity
    00:00 +20°C° 0 mm 6 mps 714 mmHg 60%
    01:00 +19°C° 0 mm 6 mps 714 mmHg 59%
    02:00 +19°C° 0 mm 6 mps 714 mmHg 59%
    03:00 +17°C° 0 mm 5 mps 713 mmHg 58%
    04:00 +17°C° 0 mm 6 mps 714 mmHg 57%
    05:00 +17°C° 0 mm 6 mps 714 mmHg 56%
    06:00 +17°C° 0 mm 6 mps 715 mmHg 54%
    07:00 +19°C° 0 mm 6 mps 715 mmHg 50%
    08:00 +20°C° 0 mm 6 mps 716 mmHg 45%
    09:00 +22°C° 0 mm 5 mps 716 mmHg 41%
    10:00 +23°C° 0 mm 5 mps 716 mmHg 36%
    11:00 +25°C° 0 mm 4 mps 716 mmHg 32%
    12:00 +27°C° 0 mm 3 mps 716 mmHg 28%
    13:00 +27°C° 0 mm 3 mps 715 mmHg 25%
    14:00 +28°C° 0 mm 3 mps 715 mmHg 21%
    15:00 +29°C° 0 mm 3 mps 714 mmHg 18%
    16:00 +29°C° 0 mm 4 mps 714 mmHg 18%
    17:00 +29°C° 0 mm 4 mps 714 mmHg 18%
    18:00 +28°C° 0 mm 5 mps 714 mmHg 18%
    19:00 +27°C° 0 mm 5 mps 715 mmHg 20%
    20:00 +26°C° 0 mm 5 mps 715 mmHg 22%
    21:00 +25°C° 0 mm 5 mps 716 mmHg 24%
    22:00 +25°C° 0 mm 5 mps 716 mmHg 25%
    23:00 +23°C° 0 mm 4 mps 716 mmHg 26%

    22 November, Thursday

    Time Temperature Precipitation Wind Pressure Humidity
    00:00 +22°C° 0 mm 4 mps 716 mmHg 28%
    01:00 +21°C° 0 mm 5 mps 716 mmHg 31%
    02:00 +20°C° 0 mm 6 mps 716 mmHg 35%
    03:00 +18°C° 0 mm 7 mps 716 mmHg 38%
    04:00 +18°C° 0 mm 7 mps 716 mmHg 41%
    05:00 +17°C° 0 mm 6 mps 717 mmHg 44%
    06:00 +16°C° 0 mm 6 mps 717 mmHg 47%
    07:00 +18°C° 0 mm 7 mps 718 mmHg 43%
    08:00 +20°C° 0 mm 7 mps 718 mmHg 39%
    09:00 +22°C° 0 mm 7 mps 719 mmHg 34%
    10:00 +24°C° 0 mm 7 mps 718 mmHg 31%
    11:00 +26°C° 0 mm 6 mps 718 mmHg 27%
    12:00 +28°C° 0 mm 6 mps 717 mmHg 23%
    13:00 +29°C° 0 mm 6 mps 716 mmHg 21%
    14:00 +30°C° 0 mm 6 mps 716 mmHg 19%
    15:00 +32°C° 0 mm 5 mps 715 mmHg 17%
    16:00 +33°C° 0 mm 5 mps 715 mmHg 17%
    17:00 +33°C° 0 mm 5 mps 715 mmHg 17%
    18:00 +33°C° 0 mm 4 mps 715 mmHg 17%
    19:00 +32°C° 0 mm 4 mps 715 mmHg 19%
    20:00 +30°C° 0 mm 4 mps 715 mmHg 21%
    21:00 +29°C° 0 mm 4 mps 715 mmHg 23%
    22:00 +28°C° 0 mm 5 mps 714 mmHg 24%
    23:00 +27°C° 0 mm 5 mps 714 mmHg 25%

    23 November, Friday

    Time Temperature Precipitation Wind Pressure Humidity
    00:00 +27°C° 0 mm 6 mps 714 mmHg 26%
    01:00 +27°C° 0 mm 6 mps 713 mmHg 27%
    02:00 +27°C° 0 mm 7 mps 713 mmHg 28%
    03:00 +26°C° 0 mm 7 mps 712 mmHg 29%
    04:00 +26°C° 0.1 mm 6 mps 713 mmHg 32%
    05:00 +26°C° 0.1 mm 5 mps 713 mmHg 34%
    06:00 +26°C° 0.1 mm 3 mps 713 mmHg 37%
    07:00 +29°C° 0 mm 6 mps 714 mmHg 35%
    08:00 +32°C° 0 mm 9 mps 714 mmHg 34%
    09:00 +36°C° 0 mm 11 mps 714 mmHg 33%
    10:00 +37°C° 0 mm 12 mps 714 mmHg 30%
    11:00 +38°C° 0 mm 12 mps 713 mmHg 28%
    12:00 +41°C° 0 mm 13 mps 713 mmHg 26%
    13:00 +39°C° 0 mm 12 mps 712 mmHg 27%
    14:00 +39°C° 0 mm 11 mps 712 mmHg 27%
    15:00 +39°C° 0 mm 10 mps 712 mmHg 27%
    16:00 +39°C° 0 mm 9 mps 712 mmHg 23%
    17:00 +39°C° 0 mm 9 mps 712 mmHg 19%
    18:00 +39°C° 0 mm 9 mps 712 mmHg 15%
    19:00 +37°C° 0 mm 8 mps 713 mmHg 16%
    20:00 +35°C° 0 mm 8 mps 713 mmHg 17%
    21:00 +33°C° 0 mm 7 mps 714 mmHg 18%
    22:00 +31°C° 0 mm 8 mps 714 mmHg 20%
    23:00 +29°C° 0 mm 9 mps 714 mmHg 22%
    Show more